Regional Weather Roundup
Issued by NWS

Home | Current Version | Previous Version | Text Only | Print | Product List | Glossary On
Versions: 1 2 3 4 5 6 7 8 9 10 11 12 13 14 15 16 17 18 19 20 21 22 23 24 25 26 27 28 29 30 31 32 33 34 35 36 37 38 39 40 41 42 43 44 45 46 47 48 49 50
847
ASUS42 KKEY 190210
RWRKEY

FLORIDA REGIONAL WEATHER ROUNDUP FOR THE FLORIDA KEYS
NATIONAL WEATHER SERVICE KEY WEST FLORIDA
900 PM EST THU JAN 18 2018

...SOUTH FLORIDA AND THE KEYS...

CITY           SKY/WX    TMP DP  RH WIND       PRES   REMARKS
FORT MYERS     FAIR      49  31  49 N6        30.32R
SW REGIONAL AP FAIR      47  32  56 N6        30.32R WCI  44
NAPLES         FAIR      49  34  56 N3        30.31R
MIAMI          MOCLDY    56  47  71 N6G16     30.28R
WEST KENDALL   FAIR      52  44  74 N13       30.28R
HOMESTEAD      FAIR      55  49  82 NW12      30.27R
MARATHON       FAIR      57  47  69 N13       30.27R
KEY WEST INTL  FAIR      57  46  66 NE9       30.29R

...INTERNATIONAL WEATHER...

CITY           SKY/WX    TMP DP  RH WIND       PRES   REMARKS
NASSAU BAHAMAS MOCLDY    66  54  63 N7        30.23R
CANCUN MEXICO  MOCLDY    68  57  68 NE8       30.22R
COZUMEL MEXICO MOCLDY    70  59  68 N9        30.20R

ADJACENT COASTAL WATERS...

STATION/POSITION TIME  SKY/WX   TEMP    WIND        PRES    WAVE
                                AIR SEA DIR/SP/G            HT/PER
                 (UTC)          (F)     (DEG/KT/KT) (MB)    (FT/S)
PULASKI SHOAL LI 0200            58      40/ 14/ 16 1025.9R
SAND KEY         0050            58                 1024.9R
LONG KEY         NOT AVBL
MOLASSES REEF    0200            57 70  360/ 19/ 20 1024.7R
FOWEY ROCKS      0200            59 73  350/ 17/ 20 1025.5R
Buoy 42097       0200               72                N/A     6/ 8

$$




USA.gov is the U.S. government's official web portal to all federal, state and local government web resources and services.